Flag for Norway Weather past 2 weeks in Tananger, Norway

Now
61 °F

Scattered showers. Broken clouds.


Feels Like: 61 °F
Forecast: 58 / 66 °F
Wind: 10 mph from West

Location: Stavanger / Sola

Current Time: Jul 31, 2014 at 7:28:23 AM

Latest Report: Jul 31, 2014 at 6:50 AM


Visibility: N/A

Pressure: 29.68 "Hg

Humidity: 83%

Dew point: 55 °F

Location of TanangerLocation

Historic Weather in Tananger — Graph

°F

Tananger temperature yesterday

Maximum temperature yesterday: 68 °F (at 3:50 PM)
Minimum temperature yesterday: 61 °F (at 2:50 AM)
Average temperature yesterday: 64 °F

Past Weeks' High & Low Weather Summary

 TemperatureHumidityPressure
High84 °F (Jul 20, 3:20 PM)100% (Jul 28, 6:20 AM)30.30 "Hg (Jul 28, 6:20 AM)
Low55 °F (Jul 19, 4:50 AM)37% (Jul 20, 1:20 PM)29.68 "Hg (Jul 31, 1:50 AM)
Average69 °F69%30.05 "Hg
* Reported Jul 16 6:20 AM — Jul 31 6:20 AM, Tananger, Weather by CustomWeather, © 2014

Note: Actual official high and low records may vary slightly from our data, if they occured in-between our weather recording intervals... More about our weather records

Advertising

Tananger weather history for previous 24 hours

 ConditionsComfort  
Time TempWeatherWind HumidityBarometerVisibility
6:20 AM
Jul 31
61 °FSprinkles. Partly cloudy.10 mph83%29.68 "HgN/A
5:50 AM63 °FScattered showers. Partly cloudy.8 mph73%29.68 "HgN/A
5:20 AM61 °FScattered showers. Partly cloudy.7 mph77%29.68 "HgN/A
4:50 AM61 °FPassing clouds.6 mph83%29.68 "HgN/A
3:50 AM59 °FScattered showers. Partly cloudy.3 mph94%29.68 "HgN/A
2:50 AM57 °FScattered showers. Partly cloudy.2 mph94%29.71 "HgN/A
1:50 AM61 °FPartly cloudy.6 mph77%29.68 "HgN/A
12:50 AM63 °FPartly cloudy.7 mph73%29.71 "HgN/A
11:50 PM
Jul 30
63 °FPartly cloudy.8 mph73%29.71 "HgN/A
11:20 PM63 °FPartly cloudy.12 mph68%29.71 "HgN/A
10:50 PM63 °FScattered showers. Broken clouds.12 mph73%29.71 "HgN/A
10:20 PM63 °FScattered showers. Broken clouds.13 mph77%29.71 "HgN/A
9:50 PM61 °FSprinkles. Partly sunny.10 mph83%29.71 "HgN/A
9:20 PM64 °FScattered showers. Partly sunny.12 mph64%29.71 "HgN/A
8:50 PM64 °FScattered showers. Cloudy.10 mph68%29.71 "HgN/A
8:20 PM64 °FScattered showers. Broken clouds.10 mph68%29.71 "HgN/A
7:50 PM64 °FScattered showers. Broken clouds.12 mph68%29.71 "HgN/A
7:20 PM64 °FScattered showers. Broken clouds.12 mph68%29.71 "HgN/A
6:50 PM64 °FScattered showers. Broken clouds.8 mph68%29.71 "HgN/A
6:20 PM66 °FScattered showers. Broken clouds.13 mph64%29.71 "HgN/A
5:50 PM66 °FScattered showers. Partly sunny.12 mph64%29.74 "HgN/A
5:20 PM66 °FScattered showers. Broken clouds.9 mph68%29.74 "HgN/A
4:50 PM66 °FBroken clouds.12 mph60%29.74 "HgN/A
4:20 PM66 °FBroken clouds.10 mph64%29.74 "HgN/A
3:50 PM68 °FBroken clouds.13 mph60%29.74 "HgN/A
3:20 PM66 °FBroken clouds.13 mph64%29.74 "HgN/A
2:50 PM66 °FScattered showers. Broken clouds.13 mph68%29.74 "HgN/A
2:20 PM66 °FScattered showers. Broken clouds.14 mph68%29.74 "HgN/A
1:50 PM66 °FBroken clouds.14 mph68%29.74 "HgN/A
1:20 PM66 °FPartly sunny.13 mph68%29.74 "HgN/A
12:50 PM66 °FBroken clouds.12 mph64%29.74 "HgN/A
12:20 PM66 °FBroken clouds.14 mph64%29.74 "HgN/A
11:50 AM66 °FBroken clouds.10 mph73%29.74 "HgN/A
11:20 AM64 °FScattered clouds.5 mph78%29.74 "HgN/A
10:50 AM61 °FBroken clouds.7 mph83%29.74 "HgN/A
10:20 AM63 °FRain showers. Partly sunny.10 mph83%29.74 "HgN/A
9:50 AM64 °FScattered showers. Partly sunny.6 mph68%29.74 "HgN/A
9:20 AM66 °FBroken clouds.7 mph64%29.74 "HgN/A
8:50 AM64 °FBroken clouds.5 mph68%29.74 "HgN/A
8:20 AM64 °FBroken clouds.5 mph73%29.74 "HgN/A
7:50 AM63 °FBroken clouds.3 mph73%29.74 "HgN/A
7:20 AM63 °FScattered showers. Scattered clouds.5 mph77%29.74 "HgN/A
Weather by CustomWeather, © 2014

See weather overviewHow to use our weather pages